Time,TemperatureF,DewpointF,PressureIn,WindDirection,WindDirectionDegrees,WindSpeedMPH,WindSpeedGustMPH,Humidity,HourlyPrecipIn,Conditions,Clouds,dailyrainin,SoftwareType,DateUTC
2013-10-09 00:02:00,59.7,48.3,29.73,SSE,168,5.2,10.4,66,0.00,CLR,SKC,0.00,WeatherDisplay:10.37,2013-10-09 05:02:00,
2013-10-09 00:07:00,59.4,48.4,29.73,SSE,167,5.9,9.2,67,0.00,CLR,SKC,0.00,WeatherDisplay:10.37,2013-10-09 05:07:00,
2013-10-09 00:12:00,59.1,48.1,29.73,South,173,7.0,10.4,67,0.00,CLR,SKC,0.00,WeatherDisplay:10.37,2013-10-09 05:12:00,
2013-10-09 00:17:00,58.8,48.3,29.73,SSE,167,5.7,8.1,68,0.00,CLR,SKC,0.00,WeatherDisplay:10.37,2013-10-09 05:17:00,
2013-10-09 00:22:00,58.5,48.4,29.73,SSE,165,4.0,9.2,69,0.00,CLR,SKC,0.00,WeatherDisplay:10.37,2013-10-09 05:22:00,
2013-10-09 00:27:00,58.2,48.1,29.74,SSE,163,6.5,10.4,69,0.00,CLR,SKC,0.00,WeatherDisplay:10.37,2013-10-09 05:27:00,
2013-10-09 00:32:00,58.0,48.3,29.74,South,171,4.9,8.1,70,0.00,CLR,SKC,0.00,WeatherDisplay:10.37,2013-10-09 05:32:00,
2013-10-09 00:37:00,57.7,48.0,29.74,SSE,162,6.0,9.2,70,0.00,CLR,SKC,0.00,WeatherDisplay:10.37,2013-10-09 05:37:00,
2013-10-09 00:42:00,57.5,48.2,29.74,SSE,168,6.3,9.2,71,0.00,CLR,SKC,0.00,WeatherDisplay:10.37,2013-10-09 05:42:00,
2013-10-09 00:47:00,57.2,47.9,29.74,SSE,167,5.5,9.2,71,0.00,CLR,SKC,0.00,WeatherDisplay:10.37,2013-10-09 05:47:00,
2013-10-09 00:52:00,56.9,48.0,29.74,SSE,166,5.6,8.1,72,0.00,CLR,SKC,0.00,WeatherDisplay:10.37,2013-10-09 05:52:00,
2013-10-09 00:57:00,56.7,48.1,29.74,SSE,166,6.2,8.1,73,0.00,CLR,SKC,0.00,WeatherDisplay:10.37,2013-10-09 05:57:00,
2013-10-09 01:02:00,56.5,47.9,29.75,South,171,6.3,9.2,73,0.00,CLR,SKC,0.00,WeatherDisplay:10.37,2013-10-09 06:02:00,
2013-10-09 01:07:00,56.3,47.8,29.75,South,171,4.1,8.1,73,0.00,CLR,SKC,0.00,WeatherDisplay:10.37,2013-10-09 06:07:00,
2013-10-09 01:12:00,55.9,47.7,29.75,South,171,3.1,5.8,74,0.00,CLR,SKC,0.00,WeatherDisplay:10.37,2013-10-09 06:12:00,
2013-10-09 01:17:00,55.5,47.7,29.75,South,171,4.2,6.0,75,0.00,CLR,SKC,0.00,WeatherDisplay:10.37,2013-10-09 06:17:00,
2013-10-09 01:22:00,55.2,47.4,29.75,South,171,3.7,5.0,75,0.00,CLR,SKC,0.00,WeatherDisplay:10.37,2013-10-09 06:22:00,
2013-10-09 01:27:00,54.8,47.4,29.76,South,171,3.2,5.0,76,0.00,CLR,SKC,0.00,WeatherDisplay:10.37,2013-10-09 06:27:00,
2013-10-09 01:32:00,54.4,47.3,29.76,South,171,4.2,6.0,77,0.00,CLR,SKC,0.00,WeatherDisplay:10.37,2013-10-09 06:32:00,
2013-10-09 01:37:00,54.0,47.0,29.76,South,171,3.6,5.8,77,0.00,CLR,SKC,0.00,WeatherDisplay:10.37,2013-10-09 06:37:00,
2013-10-09 01:42:00,53.6,46.9,29.76,South,171,3.7,5.0,78,0.00,CLR,SKC,0.00,WeatherDisplay:10.37,2013-10-09 06:42:00,
2013-10-09 01:47:00,53.2,46.9,29.76,South,171,3.2,4.6,79,0.00,CLR,SKC,0.00,WeatherDisplay:10.37,2013-10-09 06:47:00,
2013-10-09 01:52:00,52.8,46.5,29.76,South,171,2.9,5.0,79,0.00,CLR,SKC,0.00,WeatherDisplay:10.37,2013-10-09 06:52:00,
2013-10-09 01:57:00,52.5,46.5,29.76,South,171,3.0,5.0,80,0.00,CLR,SKC,0.00,WeatherDisplay:10.37,2013-10-09 06:57:00,
2013-10-09 02:02:00,52.3,46.3,29.77,South,171,3.2,4.0,80,0.00,CLR,SKC,0.00,WeatherDisplay:10.37,2013-10-09 07:02:00,
2013-10-09 02:07:00,52.2,46.5,29.76,South,171,2.6,4.6,81,0.00,CLR,SKC,0.00,WeatherDisplay:10.37,2013-10-09 07:07:00,
2013-10-09 02:12:00,52.0,46.3,29.77,South,171,3.0,4.6,81,0.00,CLR,SKC,0.00,WeatherDisplay:10.37,2013-10-09 07:12:00,
2013-10-09 02:17:00,51.9,46.3,29.77,South,171,3.4,6.0,81,0.00,CLR,SKC,0.00,WeatherDisplay:10.37,2013-10-09 07:17:00,
2013-10-09 02:22:00,51.8,46.2,29.77,South,171,3.5,5.8,81,0.00,CLR,SKC,0.00,WeatherDisplay:10.37,2013-10-09 07:22:00,
2013-10-09 02:27:00,51.7,46.4,29.77,South,171,3.3,5.8,82,0.00,CLR,SKC,0.00,WeatherDisplay:10.37,2013-10-09 07:27:00,
2013-10-09 02:32:00,51.6,46.3,29.76,South,171,4.4,6.0,82,0.00,CLR,SKC,0.00,WeatherDisplay:10.37,2013-10-09 07:32:00,
2013-10-09 02:37:00,51.6,46.3,29.76,South,171,4.1,7.0,82,0.00,CLR,SKC,0.00,WeatherDisplay:10.37,2013-10-09 07:37:00,
2013-10-09 02:42:00,51.7,46.4,29.76,South,171,4.2,6.0,82,0.00,CLR,SKC,0.00,WeatherDisplay:10.37,2013-10-09 07:42:00,
2013-10-09 02:47:00,51.9,46.6,29.76,South,171,4.3,6.0,82,0.00,CLR,SKC,0.00,WeatherDisplay:10.37,2013-10-09 07:47:00,
2013-10-09 02:52:00,51.9,46.6,29.76,South,171,3.9,5.8,82,0.00,CLR,SKC,0.00,WeatherDisplay:10.37,2013-10-09 07:52:00,
2013-10-09 02:57:00,51.9,46.6,29.76,South,171,4.0,6.9,82,0.00,CLR,SKC,0.00,WeatherDisplay:10.37,2013-10-09 07:57:00,
2013-10-09 03:02:00,52.1,46.8,29.76,South,171,3.5,5.0,82,0.00,CLR,SKC,0.00,WeatherDisplay:10.37,2013-10-09 08:02:00,
2013-10-09 03:07:00,52.1,46.8,29.76,South,171,4.2,6.0,82,0.00,CLR,SKC,0.00,WeatherDisplay:10.37,2013-10-09 08:07:00,
2013-10-09 03:12:00,52.2,46.9,29.76,South,171,5.8,8.0,82,0.00,CLR,SKC,0.00,WeatherDisplay:10.37,2013-10-09 08:12:00,
2013-10-09 03:17:00,52.3,47.0,29.76,South,171,4.7,6.9,82,0.00,CLR,SKC,0.00,WeatherDisplay:10.37,2013-10-09 08:17:00,
2013-10-09 03:22:00,52.2,46.9,29.76,South,171,4.0,6.0,82,0.00,CLR,SKC,0.00,WeatherDisplay:10.37,2013-10-09 08:22:00,
2013-10-09 03:27:00,52.0,46.7,29.76,South,171,3.6,8.1,82,0.00,CLR,SKC,0.00,WeatherDisplay:10.37,2013-10-09 08:27:00,
2013-10-09 03:32:00,51.7,46.4,29.76,South,171,4.5,6.0,82,0.00,CLR,SKC,0.00,WeatherDisplay:10.37,2013-10-09 08:32:00,
2013-10-09 03:37:00,51.5,46.2,29.76,South,171,3.7,5.0,82,0.00,CLR,SKC,0.00,WeatherDisplay:10.37,2013-10-09 08:37:00,
2013-10-09 03:42:00,51.3,46.3,29.77,South,171,4.8,6.0,83,0.00,CLR,SKC,0.00,WeatherDisplay:10.37,2013-10-09 08:42:00,
2013-10-09 03:47:00,51.0,46.0,29.77,South,171,4.7,6.0,83,0.00,CLR,SKC,0.00,WeatherDisplay:10.37,2013-10-09 08:47:00,
2013-10-09 03:52:00,50.7,45.7,29.77,South,171,4.2,6.0,83,0.00,CLR,SKC,0.00,WeatherDisplay:10.37,2013-10-09 08:52:00,
2013-10-09 03:57:00,50.5,45.5,29.77,South,171,3.8,5.8,83,0.00,CLR,SKC,0.00,WeatherDisplay:10.37,2013-10-09 08:57:00,
2013-10-09 04:02:00,50.4,45.4,29.77,South,171,4.1,5.8,83,0.00,CLR,SKC,0.00,WeatherDisplay:10.37,2013-10-09 09:02:00,
2013-10-09 04:07:00,50.3,45.3,29.77,South,171,4.0,7.0,83,0.00,CLR,SKC,0.00,WeatherDisplay:10.37,2013-10-09 09:07:00,
2013-10-09 04:12:00,50.1,45.1,29.77,South,171,4.3,6.0,83,0.00,CLR,SKC,0.00,WeatherDisplay:10.37,2013-10-09 09:12:00,
2013-10-09 04:17:00,49.9,45.3,29.77,South,171,3.8,5.0,84,0.00,CLR,SKC,0.00,WeatherDisplay:10.37,2013-10-09 09:17:00,
2013-10-09 04:22:00,49.8,44.8,29.77,South,171,3.8,5.0,83,0.00,CLR,SKC,0.00,WeatherDisplay:10.37,2013-10-09 09:22:00,
2013-10-09 04:27:00,49.7,44.7,29.77,South,171,3.1,4.6,83,0.00,CLR,SKC,0.00,WeatherDisplay:10.37,2013-10-09 09:27:00,
2013-10-09 04:32:00,49.6,44.6,29.77,South,171,3.4,6.9,83,0.00,CLR,SKC,0.00,WeatherDisplay:10.37,2013-10-09 09:32:00,
2013-10-09 04:37:00,49.5,44.6,29.77,South,171,4.5,5.0,83,0.00,CLR,SKC,0.00,WeatherDisplay:10.37,2013-10-09 09:37:00,
2013-10-09 04:42:00,49.4,44.8,29.77,South,171,3.9,5.8,84,0.00,CLR,SKC,0.00,WeatherDisplay:10.37,2013-10-09 09:42:00,
2013-10-09 04:47:00,49.3,44.7,29.77,South,171,4.6,6.0,84,0.00,CLR,SKC,0.00,WeatherDisplay:10.37,2013-10-09 09:47:00,
2013-10-09 04:52:00,49.3,44.4,29.78,South,171,3.9,5.0,83,0.00,CLR,SKC,0.00,WeatherDisplay:10.37,2013-10-09 09:52:00,
2013-10-09 04:57:00,49.3,44.4,29.78,South,171,3.9,6.0,83,0.00,CLR,SKC,0.00,WeatherDisplay:10.37,2013-10-09 09:57:00,
2013-10-09 05:02:00,49.2,44.3,29.78,South,171,3.3,5.0,83,0.00,CLR,SKC,0.00,WeatherDisplay:10.37,2013-10-09 10:02:00,
2013-10-09 05:07:00,49.2,44.3,29.78,South,171,4.7,6.9,83,0.00,CLR,SKC,0.00,WeatherDisplay:10.37,2013-10-09 10:07:00,
2013-10-09 05:12:00,49.1,44.2,29.78,South,171,5.9,7.0,83,0.00,CLR,SKC,0.00,WeatherDisplay:10.37,2013-10-09 10:12:00,
2013-10-09 05:17:00,49.1,44.2,29.78,South,171,5.5,8.1,83,0.00,CLR,SKC,0.00,WeatherDisplay:10.37,2013-10-09 10:17:00,
2013-10-09 05:22:00,49.2,44.3,29.78,South,171,4.8,6.9,83,0.00,CLR,SKC,0.00,WeatherDisplay:10.37,2013-10-09 10:22:00,
2013-10-09 05:27:00,49.2,44.3,29.78,South,171,4.6,6.0,83,0.00,CLR,SKC,0.00,WeatherDisplay:10.37,2013-10-09 10:27:00,
2013-10-09 05:32:00,49.2,44.3,29.78,South,171,4.3,6.0,83,0.00,CLR,SKC,0.00,WeatherDisplay:10.37,2013-10-09 10:32:00,
2013-10-09 05:37:00,49.1,44.2,29.78,South,171,4.5,7.0,83,0.00,CLR,SKC,0.00,WeatherDisplay:10.37,2013-10-09 10:37:00,
2013-10-09 05:42:00,49.0,44.1,29.78,South,171,4.0,6.9,83,0.00,CLR,SKC,0.00,WeatherDisplay:10.37,2013-10-09 10:42:00,
2013-10-09 05:47:00,49.0,44.1,29.78,South,171,4.5,6.0,83,0.00,CLR,SKC,0.00,WeatherDisplay:10.37,2013-10-09 10:47:00,
2013-10-09 05:52:00,49.1,44.2,29.78,South,171,4.3,6.9,83,0.00,CLR,SKC,0.00,WeatherDisplay:10.37,2013-10-09 10:52:00,
2013-10-09 05:57:00,49.2,44.3,29.78,South,171,6.6,9.2,83,0.00,CLR,SKC,0.00,WeatherDisplay:10.37,2013-10-09 10:57:00,
2013-10-09 06:02:00,49.4,44.5,29.78,South,171,5.6,8.1,83,0.00,CLR,SKC,0.00,WeatherDisplay:10.37,2013-10-09 11:02:00,
2013-10-09 06:07:00,49.4,44.5,29.78,South,171,5.0,7.0,83,0.00,CLR,SKC,0.00,WeatherDisplay:10.37,2013-10-09 11:07:00,
2013-10-09 06:12:00,49.4,44.5,29.78,South,171,5.4,8.1,83,0.00,CLR,SKC,0.00,WeatherDisplay:10.37,2013-10-09 11:12:00,
2013-10-09 06:17:00,49.4,44.5,29.78,South,171,3.0,5.8,83,0.00,CLR,SKC,0.00,WeatherDisplay:10.37,2013-10-09 11:17:00,
2013-10-09 06:22:00,49.4,44.5,29.78,South,171,3.7,6.9,83,0.00,CLR,SKC,0.00,WeatherDisplay:10.37,2013-10-09 11:22:00,
2013-10-09 06:27:00,49.4,44.5,29.78,South,171,4.1,8.0,83,0.00,CLR,SKC,0.00,WeatherDisplay:10.37,2013-10-09 11:27:00,
2013-10-09 06:32:00,49.6,44.6,29.78,South,171,4.4,6.0,83,0.00,CLR,SKC,0.00,WeatherDisplay:10.37,2013-10-09 11:32:00,
2013-10-09 06:37:00,49.6,44.6,29.79,South,171,4.4,6.0,83,0.00,CLR,SKC,0.00,WeatherDisplay:10.37,2013-10-09 11:37:00,
2013-10-09 06:42:00,49.6,44.6,29.78,South,171,4.8,7.0,83,0.00,CLR,SKC,0.00,WeatherDisplay:10.37,2013-10-09 11:42:00,
2013-10-09 06:47:00,49.4,44.8,29.78,South,171,4.6,8.1,84,0.00,CLR,SKC,0.00,WeatherDisplay:10.37,2013-10-09 11:47:00,
2013-10-09 06:52:00,49.2,44.6,29.78,South,171,3.8,6.0,84,0.00,CLR,SKC,0.00,WeatherDisplay:10.37,2013-10-09 11:52:00,
2013-10-09 06:57:00,49.1,44.2,29.78,South,171,4.2,5.0,83,0.00,CLR,SKC,0.00,WeatherDisplay:10.37,2013-10-09 11:57:00,
2013-10-09 07:02:00,48.8,43.9,29.78,South,171,3.5,5.8,83,0.00,CLR,SKC,0.00,WeatherDisplay:10.37,2013-10-09 12:02:00,
2013-10-09 07:07:00,48.5,43.9,29.78,South,171,3.0,4.0,84,0.00,CLR,SKC,0.00,WeatherDisplay:10.37,2013-10-09 12:07:00,
2013-10-09 07:11:00,48.3,43.7,29.78,South,171,4.6,6.0,84,0.00,CLR,SKC,0.00,WeatherDisplay:10.37,2013-10-09 12:11:00,
2013-10-09 07:16:00,48.3,43.4,29.78,South,171,4.2,5.8,83,0.00,CLR,SKC,0.00,WeatherDisplay:10.37,2013-10-09 12:16:00,
2013-10-09 07:21:00,48.3,43.4,29.79,South,171,3.3,4.6,83,0.00,CLR,SKC,0.00,WeatherDisplay:10.37,2013-10-09 12:21:00,
2013-10-09 07:26:00,48.2,43.3,29.79,South,171,3.2,4.0,83,0.00,CLR,SKC,0.00,WeatherDisplay:10.37,2013-10-09 12:26:00,
2013-10-09 07:31:00,48.2,43.3,29.79,South,171,3.7,6.9,83,0.00,CLR,SKC,0.00,WeatherDisplay:10.37,2013-10-09 12:31:00,
2013-10-09 07:36:00,48.2,43.3,29.79,South,171,2.8,5.0,83,0.00,CLR,SKC,0.00,WeatherDisplay:10.37,2013-10-09 12:36:00,
2013-10-09 07:41:00,48.3,43.1,29.79,South,171,3.6,5.0,82,0.00,CLR,SKC,0.00,WeatherDisplay:10.37,2013-10-09 12:41:00,
2013-10-09 07:46:00,48.5,43.3,29.79,South,171,3.0,4.0,82,0.00,CLR,SKC,0.00,WeatherDisplay:10.37,2013-10-09 12:46:00,
2013-10-09 07:51:00,48.7,43.5,29.80,South,171,4.4,6.0,82,0.00,CLR,SKC,0.00,WeatherDisplay:10.37,2013-10-09 12:51:00,
2013-10-09 07:56:00,48.9,43.6,29.80,South,171,4.5,6.9,82,0.00,CLR,SKC,0.00,WeatherDisplay:10.37,2013-10-09 12:56:00,
2013-10-09 08:01:00,49.2,43.9,29.80,South,171,4.6,7.0,82,0.00,CLR,SKC,0.00,WeatherDisplay:10.37,2013-10-09 13:01:00,
2013-10-09 08:06:00,49.5,44.6,29.80,South,171,5.2,8.1,83,0.00,CLR,SKC,0.00,WeatherDisplay:10.37,2013-10-09 13:06:00,
2013-10-09 08:11:00,49.7,44.7,29.80,South,171,6.2,9.2,83,0.00,CLR,SKC,0.00,WeatherDisplay:10.37,2013-10-09 13:11:00,
2013-10-09 08:16:00,49.9,44.9,29.80,South,171,5.9,11.0,83,0.00,CLR,SKC,0.00,WeatherDisplay:10.37,2013-10-09 13:16:00,
2013-10-09 08:21:00,50.2,45.2,29.80,South,170,6.5,10.4,83,0.00,CLR,SKC,0.00,WeatherDisplay:10.37,2013-10-09 13:21:00,
2013-10-09 08:26:00,50.5,45.5,29.80,SSE,163,7.4,11.5,83,0.00,CLR,SKC,0.00,WeatherDisplay:10.37,2013-10-09 13:26:00,
2013-10-09 08:31:00,51.0,46.0,29.80,South,171,5.3,9.2,83,0.00,CLR,SKC,0.00,WeatherDisplay:10.37,2013-10-09 13:31:00,
2013-10-09 08:36:00,51.7,47.0,29.80,South,173,6.4,10.4,84,0.00,CLR,SKC,0.00,WeatherDisplay:10.37,2013-10-09 13:36:00,
2013-10-09 08:41:00,52.6,47.6,29.80,South,173,8.4,12.0,83,0.00,CLR,SKC,0.00,WeatherDisplay:10.37,2013-10-09 13:41:00,
2013-10-09 08:46:00,53.4,48.4,29.81,SSE,165,7.2,11.5,83,0.00,CLR,SKC,0.00,WeatherDisplay:10.37,2013-10-09 13:46:00,
2013-10-09 08:51:00,54.4,49.0,29.81,South,178,6.1,10.0,82,0.00,CLR,SKC,0.00,WeatherDisplay:10.37,2013-10-09 13:51:00,
2013-10-09 08:56:00,55.1,49.4,29.81,SSE,155,7.5,11.5,81,0.00,CLR,SKC,0.00,WeatherDisplay:10.37,2013-10-09 13:56:00,
2013-10-09 09:01:00,55.6,49.9,29.81,SSE,167,7.0,11.5,81,0.00,CLR,SKC,0.00,WeatherDisplay:10.37,2013-10-09 14:01:00,
2013-10-09 09:06:00,56.0,49.9,29.81,South,180,6.3,12.7,80,0.00,CLR,SKC,0.00,WeatherDisplay:10.37,2013-10-09 14:06:00,
2013-10-09 09:11:00,56.4,50.3,29.81,South,171,7.2,12.0,80,0.00,CLR,SKC,0.00,WeatherDisplay:10.37,2013-10-09 14:11:00,
2013-10-09 09:16:00,57.1,50.6,29.81,South,175,7.9,11.5,79,0.00,CLR,SKC,0.00,WeatherDisplay:10.37,2013-10-09 14:16:00,
2013-10-09 09:21:00,57.7,50.9,29.81,South,178,7.8,13.8,78,0.00,CLR,SKC,0.00,WeatherDisplay:10.37,2013-10-09 14:21:00,
2013-10-09 09:26:00,57.9,50.7,29.81,SSE,166,8.1,11.5,77,0.00,CLR,SKC,0.00,WeatherDisplay:10.37,2013-10-09 14:26:00,
2013-10-09 09:31:00,58.1,50.9,29.81,South,182,8.1,11.5,77,0.00,CLR,SKC,0.00,WeatherDisplay:10.37,2013-10-09 14:31:00,
2013-10-09 09:36:00,58.0,50.8,29.81,South,176,8.2,11.5,77,0.00,CLR,SKC,0.00,WeatherDisplay:10.37,2013-10-09 14:36:00,
2013-10-09 09:41:00,57.8,50.6,29.81,South,171,8.1,12.7,77,0.00,CLR,SKC,0.00,WeatherDisplay:10.37,2013-10-09 14:41:00,
2013-10-09 09:46:00,58.2,51.0,29.81,South,169,6.4,11.5,77,0.00,CLR,SKC,0.00,WeatherDisplay:10.37,2013-10-09 14:46:00,
2013-10-09 09:51:00,59.2,51.6,29.82,South,178,8.1,16.1,76,0.00,CLR,SKC,0.00,WeatherDisplay:10.37,2013-10-09 14:51:00,
2013-10-09 09:56:00,60.0,51.7,29.82,SSW,196,9.0,14.0,74,0.00,CLR,SKC,0.00,WeatherDisplay:10.37,2013-10-09 14:56:00,
2013-10-09 10:01:00,60.8,52.1,29.81,South,190,9.5,13.0,73,0.00,CLR,SKC,0.00,WeatherDisplay:10.37,2013-10-09 15:01:00,
2013-10-09 10:06:00,61.6,52.5,29.81,SSE,165,10.3,15.0,72,0.00,CLR,SKC,0.00,WeatherDisplay:10.37,2013-10-09 15:06:00,
2013-10-09 10:11:00,62.4,52.9,29.81,South,171,9.5,12.0,71,0.00,CLR,SKC,0.00,WeatherDisplay:10.37,2013-10-09 15:11:00,
2013-10-09 10:16:00,63.2,52.9,29.81,South,169,10.0,15.0,69,0.00,CLR,SKC,0.00,WeatherDisplay:10.37,2013-10-09 15:16:00,
2013-10-09 10:21:00,63.7,53.3,29.82,South,182,8.3,13.8,69,0.00,CLR,SKC,0.00,WeatherDisplay:10.37,2013-10-09 15:21:00,
2013-10-09 10:26:00,64.0,52.8,29.82,SSW,193,9.9,17.3,67,0.00,CLR,SKC,0.00,WeatherDisplay:10.37,2013-10-09 15:26:00,
2013-10-09 10:31:00,64.5,53.3,29.82,South,176,10.7,18.4,67,0.00,CLR,SKC,0.00,WeatherDisplay:10.37,2013-10-09 15:31:00,
2013-10-09 10:36:00,65.0,52.9,29.82,South,174,11.1,16.1,65,0.00,CLR,SKC,0.00,WeatherDisplay:10.37,2013-10-09 15:36:00,
2013-10-09 10:41:00,65.4,53.3,29.82,SSE,163,9.7,13.0,65,0.00,CLR,SKC,0.00,WeatherDisplay:10.37,2013-10-09 15:41:00,
2013-10-09 10:46:00,66.0,53.5,29.83,SSE,166,7.8,11.5,64,0.00,CLR,SKC,0.00,WeatherDisplay:10.37,2013-10-09 15:46:00,
2013-10-09 10:51:00,66.6,53.6,29.82,South,187,7.8,10.4,63,0.00,CLR,SKC,0.00,WeatherDisplay:10.37,2013-10-09 15:51:00,
2013-10-09 10:56:00,66.7,54.1,29.82,South,171,10.9,15.0,64,0.00,CLR,SKC,0.00,WeatherDisplay:10.37,2013-10-09 15:56:00,
2013-10-09 11:01:00,66.9,53.0,29.82,South,182,10.0,17.3,61,0.00,CLR,SKC,0.00,WeatherDisplay:10.37,2013-10-09 16:01:00,
2013-10-09 11:06:00,66.9,53.5,29.82,SSE,168,8.6,15.0,62,0.00,CLR,SKC,0.00,WeatherDisplay:10.37,2013-10-09 16:06:00,
2013-10-09 11:11:00,67.3,52.9,29.82,South,174,12.4,17.3,60,0.00,CLR,SKC,0.00,WeatherDisplay:10.37,2013-10-09 16:11:00,
2013-10-09 11:16:00,67.0,53.1,29.82,SSW,192,8.9,16.1,61,0.00,CLR,SKC,0.00,WeatherDisplay:10.37,2013-10-09 16:16:00,
2013-10-09 11:21:00,67.1,53.2,29.82,South,180,9.9,14.0,61,0.00,CLR,SKC,0.00,WeatherDisplay:10.37,2013-10-09 16:21:00,
2013-10-09 11:26:00,67.2,53.3,29.82,SSE,165,11.0,15.0,61,0.00,CLR,SKC,0.00,WeatherDisplay:10.37,2013-10-09 16:26:00,
2013-10-09 11:31:00,67.6,53.7,29.82,South,170,9.2,17.3,61,0.00,CLR,SKC,0.00,WeatherDisplay:10.37,2013-10-09 16:31:00,
2013-10-09 11:36:00,67.4,53.0,29.82,South,174,10.1,19.6,60,0.00,CLR,SKC,0.00,WeatherDisplay:10.37,2013-10-09 16:36:00,
2013-10-09 11:41:00,67.4,53.0,29.82,South,174,12.0,18.4,60,0.00,CLR,SKC,0.00,WeatherDisplay:10.37,2013-10-09 16:41:00,
2013-10-09 11:46:00,67.9,53.5,29.82,South,173,10.5,18.4,60,0.00,CLR,SKC,0.00,WeatherDisplay:10.37,2013-10-09 16:46:00,
2013-10-09 11:51:00,68.6,53.2,29.82,SSW,212,9.8,16.1,58,0.00,CLR,SKC,0.00,WeatherDisplay:10.37,2013-10-09 16:51:00,
2013-10-09 11:56:00,68.7,53.3,29.82,SSE,147,13.3,19.6,58,0.00,CLR,SKC,0.00,WeatherDisplay:10.37,2013-10-09 16:56:00,
2013-10-09 12:01:00,68.7,53.8,29.82,South,187,11.8,16.1,59,0.00,CLR,SKC,0.00,WeatherDisplay:10.37,2013-10-09 17:01:00,
2013-10-09 12:06:00,69.5,53.6,29.81,SSE,168,11.7,19.6,57,0.00,CLR,SKC,0.00,WeatherDisplay:10.37,2013-10-09 17:06:00,
2013-10-09 12:11:00,70.1,54.2,29.81,South,169,10.5,14.0,57,0.00,CLR,SKC,0.00,WeatherDisplay:10.37,2013-10-09 17:11:00,
2013-10-09 12:16:00,70.2,53.3,29.82,SSE,155,13.6,20.0,55,0.00,CLR,SKC,0.00,WeatherDisplay:10.37,2013-10-09 17:16:00,
2013-10-09 12:21:00,69.4,53.0,29.82,South,171,11.4,15.0,56,0.00,CLR,SKC,0.00,WeatherDisplay:10.37,2013-10-09 17:21:00,
2013-10-09 12:26:00,68.8,52.9,29.81,SW,220,12.2,19.6,57,0.00,CLR,SKC,0.00,WeatherDisplay:10.37,2013-10-09 17:26:00,
2013-10-09 12:31:00,68.8,53.4,29.81,South,182,9.1,15.0,58,0.00,CLR,SKC,0.00,WeatherDisplay:10.37,2013-10-09 17:31:00,
2013-10-09 12:36:00,69.5,53.6,29.81,SSE,164,12.6,17.3,57,0.00,CLR,SKC,0.00,WeatherDisplay:10.37,2013-10-09 17:36:00,
2013-10-09 12:41:00,69.9,53.0,29.80,SSE,159,10.4,16.1,55,0.00,CLR,SKC,0.00,WeatherDisplay:10.37,2013-10-09 17:41:00,
2013-10-09 12:46:00,70.6,54.1,29.81,South,180,11.2,17.3,56,0.00,CLR,SKC,0.00,WeatherDisplay:10.37,2013-10-09 17:46:00,
2013-10-09 12:51:00,71.1,53.6,29.81,South,171,13.6,19.6,54,0.00,CLR,SKC,0.00,WeatherDisplay:10.37,2013-10-09 17:51:00,
2013-10-09 12:56:00,71.0,54.0,29.80,South,173,11.1,17.3,55,0.00,CLR,SKC,0.00,WeatherDisplay:10.37,2013-10-09 17:56:00,
2013-10-09 13:01:00,71.8,54.3,29.80,South,174,11.7,17.3,54,0.00,SCT,SKC,0.00,WeatherDisplay:10.37,2013-10-09 18:01:00,
2013-10-09 13:06:00,72.0,54.4,29.80,South,175,11.2,14.0,54,0.00,SCT,SKC,0.00,WeatherDisplay:10.37,2013-10-09 18:06:00,
2013-10-09 13:11:00,72.4,54.3,29.80,SSE,157,10.2,14.0,53,0.00,SCT,SKC,0.00,WeatherDisplay:10.37,2013-10-09 18:11:00,
2013-10-09 13:16:00,73.0,53.8,29.80,SSW,192,8.0,12.7,51,0.00,SCT,SKC,0.00,WeatherDisplay:10.37,2013-10-09 18:16:00,
2013-10-09 13:21:00,73.2,54.0,29.80,South,182,11.4,15.0,51,0.00,CLR,SKC,0.00,WeatherDisplay:10.37,2013-10-09 18:21:00,
2013-10-09 13:26:00,73.5,52.6,29.80,South,177,14.5,19.6,48,0.00,CLR,SKC,0.00,WeatherDisplay:10.37,2013-10-09 18:26:00,
2013-10-09 13:31:00,73.1,52.2,29.80,South,174,11.5,18.4,48,0.00,CLR,SKC,0.00,WeatherDisplay:10.37,2013-10-09 18:31:00,
2013-10-09 13:36:00,73.2,52.9,29.80,SE,144,12.3,18.4,49,0.00,CLR,SKC,0.00,WeatherDisplay:10.37,2013-10-09 18:36:00,
2013-10-09 13:41:00,73.5,53.2,29.80,SSE,163,11.1,17.0,49,0.00,CLR,SKC,0.00,WeatherDisplay:10.37,2013-10-09 18:41:00,
2013-10-09 13:46:00,73.6,53.3,29.80,South,185,10.2,17.3,49,0.00,CLR,SKC,0.00,WeatherDisplay:10.37,2013-10-09 18:46:00,
2013-10-09 13:51:00,73.9,53.5,29.79,SSE,167,8.7,15.0,49,0.00,CLR,SKC,0.00,WeatherDisplay:10.37,2013-10-09 18:51:00,
2013-10-09 13:56:00,74.3,53.3,29.79,South,178,9.4,16.1,48,0.00,CLR,SKC,0.00,WeatherDisplay:10.37,2013-10-09 18:56:00,
2013-10-09 14:01:00,74.5,52.4,29.79,SSE,168,10.6,15.0,46,0.00,CLR,SKC,0.00,WeatherDisplay:10.37,2013-10-09 19:01:00,
2013-10-09 14:06:00,74.4,51.7,29.79,South,186,11.1,15.0,45,0.00,CLR,SKC,0.00,WeatherDisplay:10.37,2013-10-09 19:06:00,
2013-10-09 14:11:00,74.2,52.1,29.79,South,173,11.5,17.3,46,0.00,CLR,SKC,0.00,WeatherDisplay:10.37,2013-10-09 19:11:00,
2013-10-09 14:16:00,74.1,52.0,29.79,SSW,196,7.1,11.5,46,0.00,CLR,SKC,0.00,WeatherDisplay:10.37,2013-10-09 19:16:00,
2013-10-09 14:21:00,74.4,51.7,29.78,SSE,151,10.9,18.4,45,0.00,CLR,SKC,0.00,WeatherDisplay:10.37,2013-10-09 19:21:00,
2013-10-09 14:26:00,74.4,52.3,29.78,SSE,148,11.2,18.0,46,0.00,CLR,SKC,0.00,WeatherDisplay:10.37,2013-10-09 19:26:00,
2013-10-09 14:31:00,74.3,51.6,29.79,SSE,168,11.5,16.1,45,0.00,CLR,SKC,0.00,WeatherDisplay:10.37,2013-10-09 19:31:00,
2013-10-09 14:36:00,74.6,52.4,29.79,SSE,157,8.0,15.0,46,0.00,CLR,SKC,0.00,WeatherDisplay:10.37,2013-10-09 19:36:00,
2013-10-09 14:41:00,74.6,52.4,29.78,South,179,9.4,13.0,46,0.00,CLR,SKC,0.00,WeatherDisplay:10.37,2013-10-09 19:41:00,
2013-10-09 14:46:00,74.9,52.1,29.78,South,182,8.6,12.7,45,0.00,CLR,SKC,0.00,WeatherDisplay:10.37,2013-10-09 19:46:00,
2013-10-09 14:51:00,74.9,51.5,29.78,South,169,13.5,18.4,44,0.00,CLR,SKC,0.00,WeatherDisplay:10.37,2013-10-09 19:51:00,
2013-10-09 14:56:00,75.0,51.6,29.78,South,180,11.8,15.0,44,0.00,CLR,SKC,0.00,WeatherDisplay:10.37,2013-10-09 19:56:00,
2013-10-09 15:01:00,75.0,51.6,29.78,SE,144,10.7,17.3,44,0.00,CLR,SKC,0.00,WeatherDisplay:10.37,2013-10-09 20:01:00,
2013-10-09 15:06:00,75.1,51.7,29.78,SSE,150,10.1,17.0,44,0.00,CLR,SKC,0.00,WeatherDisplay:10.37,2013-10-09 20:06:00,
2013-10-09 15:11:00,74.9,51.5,29.78,SSE,165,11.1,16.1,44,0.00,CLR,SKC,0.00,WeatherDisplay:10.37,2013-10-09 20:11:00,
2013-10-09 15:16:00,74.8,51.4,29.78,SSE,167,10.9,17.3,44,0.00,CLR,SKC,0.00,WeatherDisplay:10.37,2013-10-09 20:16:00,
2013-10-09 15:21:00,74.9,52.1,29.78,SSE,148,11.7,16.1,45,0.00,CLR,SKC,0.00,WeatherDisplay:10.37,2013-10-09 20:21:00,
2013-10-09 15:26:00,74.9,51.5,29.78,SSE,163,11.6,16.1,44,0.00,CLR,SKC,0.00,WeatherDisplay:10.37,2013-10-09 20:26:00,
2013-10-09 15:31:00,75.0,51.6,29.78,SSE,161,11.2,20.7,44,0.00,CLR,SKC,0.00,WeatherDisplay:10.37,2013-10-09 20:31:00,
2013-10-09 15:36:00,74.7,50.7,29.78,South,176,11.0,16.1,43,0.00,CLR,SKC,0.00,WeatherDisplay:10.37,2013-10-09 20:36:00,
2013-10-09 15:41:00,74.6,50.6,29.78,SSE,157,12.9,18.4,43,0.00,CLR,SKC,0.00,WeatherDisplay:10.37,2013-10-09 20:41:00,
2013-10-09 15:46:00,74.3,51.0,29.78,SSE,168,12.8,17.3,44,0.00,CLR,SKC,0.00,WeatherDisplay:10.37,2013-10-09 20:46:00,
2013-10-09 15:51:00,74.1,50.8,29.78,SSE,154,8.8,12.7,44,0.00,CLR,SKC,0.00,WeatherDisplay:10.37,2013-10-09 20:51:00,
2013-10-09 15:56:00,74.0,50.7,29.78,SSE,167,9.8,18.4,44,0.00,CLR,SKC,0.00,WeatherDisplay:10.37,2013-10-09 20:56:00,
2013-10-09 16:01:00,74.0,50.7,29.78,SSE,165,10.8,17.3,44,0.00,CLR,SKC,0.00,WeatherDisplay:10.37,2013-10-09 21:01:00,
2013-10-09 16:06:00,73.9,50.0,29.78,South,175,9.9,15.0,43,0.00,CLR,SKC,0.00,WeatherDisplay:10.37,2013-10-09 21:06:00,
2013-10-09 16:11:00,73.8,50.5,29.78,SSE,165,12.7,17.3,44,0.00,CLR,SKC,0.00,WeatherDisplay:10.37,2013-10-09 21:11:00,
2013-10-09 16:16:00,73.7,50.4,29.78,South,181,10.0,15.0,44,0.00,CLR,SKC,0.00,WeatherDisplay:10.37,2013-10-09 21:16:00,
2013-10-09 16:21:00,73.7,50.4,29.77,SE,142,9.1,16.1,44,0.00,CLR,SKC,0.00,WeatherDisplay:10.37,2013-10-09 21:21:00,
2013-10-09 16:26:00,73.8,50.5,29.78,SSE,153,10.3,19.0,44,0.00,CLR,SKC,0.00,WeatherDisplay:10.37,2013-10-09 21:26:00,
2013-10-09 16:31:00,73.6,50.3,29.77,SSE,163,9.8,13.8,44,0.00,CLR,SKC,0.00,WeatherDisplay:10.37,2013-10-09 21:31:00,
2013-10-09 16:36:00,73.5,50.2,29.77,SSE,153,9.0,14.0,44,0.00,CLR,SKC,0.00,WeatherDisplay:10.37,2013-10-09 21:36:00,
2013-10-09 16:41:00,73.5,50.2,29.77,SSE,163,8.1,13.8,44,0.00,CLR,SKC,0.00,WeatherDisplay:10.37,2013-10-09 21:41:00,
2013-10-09 16:46:00,73.4,50.2,29.77,SSE,166,6.2,10.4,44,0.00,CLR,SKC,0.00,WeatherDisplay:10.37,2013-10-09 21:46:00,
2013-10-09 16:51:00,73.5,50.2,29.77,SSE,155,8.8,17.3,44,0.00,CLR,SKC,0.00,WeatherDisplay:10.37,2013-10-09 21:51:00,
2013-10-09 16:56:00,73.4,49.5,29.77,SSE,163,8.6,14.0,43,0.00,CLR,SKC,0.00,WeatherDisplay:10.37,2013-10-09 21:56:00,
2013-10-09 17:01:00,73.2,50.0,29.77,SSE,157,9.3,13.0,44,0.00,CLR,SKC,0.00,WeatherDisplay:10.37,2013-10-09 22:01:00,
2013-10-09 17:06:00,73.1,49.9,29.77,South,179,8.2,11.5,44,0.00,CLR,SKC,0.00,WeatherDisplay:10.37,2013-10-09 22:06:00,
2013-10-09 17:11:00,72.9,49.7,29.77,SSE,163,6.1,10.4,44,0.00,CLR,SKC,0.00,WeatherDisplay:10.37,2013-10-09 22:11:00,
2013-10-09 17:16:00,72.7,50.1,29.78,SSE,167,9.2,12.7,45,0.00,CLR,SKC,0.00,WeatherDisplay:10.37,2013-10-09 22:16:00,
2013-10-09 17:21:00,72.4,49.9,29.77,SSE,153,9.0,12.0,45,0.00,CLR,SKC,0.00,WeatherDisplay:10.37,2013-10-09 22:21:00,
2013-10-09 17:26:00,72.1,49.6,29.77,SE,130,8.9,13.0,45,0.00,CLR,SKC,0.00,WeatherDisplay:10.37,2013-10-09 22:26:00,
2013-10-09 17:31:00,71.7,49.2,29.77,SSE,152,7.6,12.0,45,0.00,CLR,SKC,0.00,WeatherDisplay:10.37,2013-10-09 22:31:00,
2013-10-09 17:36:00,71.5,49.6,29.77,SSE,168,7.0,10.4,46,0.00,CLR,SKC,0.00,WeatherDisplay:10.37,2013-10-09 22:36:00,
2013-10-09 17:41:00,71.3,50.0,29.77,SSE,160,6.4,8.1,47,0.00,CLR,SKC,0.00,WeatherDisplay:10.37,2013-10-09 22:41:00,
2013-10-09 17:46:00,71.0,50.3,29.77,SSE,167,5.3,9.0,48,0.00,CLR,SKC,0.00,WeatherDisplay:10.37,2013-10-09 22:46:00,
2013-10-09 17:51:00,70.7,50.0,29.77,SSE,162,3.8,6.0,48,0.00,CLR,SKC,0.00,WeatherDisplay:10.37,2013-10-09 22:51:00,
2013-10-09 17:56:00,70.4,49.2,29.77,SSE,161,5.4,10.4,47,0.00,CLR,SKC,0.00,WeatherDisplay:10.37,2013-10-09 22:56:00,
2013-10-09 18:01:00,70.1,48.9,29.77,SSE,155,6.0,10.4,47,0.00,CLR,SKC,0.00,WeatherDisplay:10.37,2013-10-09 23:01:00,
2013-10-09 18:06:00,69.8,48.7,29.77,SSE,155,7.5,9.2,47,0.00,CLR,SKC,0.00,WeatherDisplay:10.37,2013-10-09 23:06:00,
2013-10-09 18:11:00,69.4,49.4,29.77,SSE,157,4.3,6.0,49,0.00,CLR,SKC,0.00,WeatherDisplay:10.37,2013-10-09 23:11:00,
2013-10-09 18:16:00,68.8,49.4,29.77,SSE,157,4.5,6.9,50,0.00,CLR,SKC,0.00,WeatherDisplay:10.37,2013-10-09 23:16:00,
2013-10-09 18:21:00,68.1,49.8,29.77,SSE,157,3.7,6.9,52,0.00,CLR,SKC,0.00,WeatherDisplay:10.37,2013-10-09 23:21:00,
2013-10-09 18:26:00,67.4,49.7,29.77,SSE,157,4.2,6.9,53,0.00,CLR,SKC,0.00,WeatherDisplay:10.37,2013-10-09 23:26:00,
2013-10-09 18:31:00,66.6,49.9,29.77,SSE,157,3.4,5.8,55,0.00,CLR,SKC,0.00,WeatherDisplay:10.37,2013-10-09 23:31:00,
2013-10-09 18:36:00,65.9,49.8,29.77,SSE,157,3.2,4.6,56,0.00,CLR,SKC,0.00,WeatherDisplay:10.37,2013-10-09 23:36:00,
2013-10-09 18:41:00,65.2,49.6,29.77,SSE,157,2.9,4.6,57,0.00,CLR,SKC,0.00,WeatherDisplay:10.37,2013-10-09 23:41:00,
2013-10-09 18:46:00,64.6,49.5,29.76,SSE,157,3.0,4.6,58,0.00,CLR,SKC,0.00,WeatherDisplay:10.37,2013-10-09 23:46:00,
2013-10-09 18:51:00,64.1,49.9,29.76,SSE,157,4.2,6.9,60,0.00,CLR,SKC,0.00,WeatherDisplay:10.37,2013-10-09 23:51:00,
2013-10-09 18:56:00,63.8,49.6,29.77,SSE,157,4.6,6.0,60,0.00,CLR,SKC,0.00,WeatherDisplay:10.37,2013-10-09 23:56:00,
2013-10-09 19:01:00,63.5,49.8,29.77,SSE,157,4.2,5.8,61,0.00,CLR,SKC,0.00,WeatherDisplay:10.37,2013-10-10 00:01:00,
2013-10-09 19:07:00,63.1,49.4,29.77,SSE,157,4.2,6.0,61,0.00,CLR,SKC,0.00,WeatherDisplay:10.37,2013-10-10 00:07:00,
2013-10-09 19:12:00,62.8,49.6,29.77,SSE,157,1.8,4.6,62,0.00,CLR,SKC,0.00,WeatherDisplay:10.37,2013-10-10 00:12:00,
2013-10-09 19:17:00,62.3,49.5,29.77,SSE,157,1.1,3.5,63,0.00,CLR,SKC,0.00,WeatherDisplay:10.37,2013-10-10 00:17:00,
2013-10-09 19:22:00,61.7,49.4,29.77,SSE,157,2.7,4.0,64,0.00,CLR,SKC,0.00,WeatherDisplay:10.37,2013-10-10 00:22:00,
2013-10-09 19:27:00,61.0,49.1,29.77,SSE,157,1.7,4.0,65,0.00,CLR,SKC,0.00,WeatherDisplay:10.37,2013-10-10 00:27:00,
2013-10-09 19:32:00,60.4,49.0,29.77,SSE,157,3.2,4.6,66,0.00,CLR,SKC,0.00,WeatherDisplay:10.37,2013-10-10 00:32:00,
2013-10-09 19:37:00,59.8,48.8,29.77,SSE,157,2.9,4.0,67,0.00,CLR,SKC,0.00,WeatherDisplay:10.37,2013-10-10 00:37:00,
2013-10-09 19:42:00,59.4,49.2,29.77,SSE,156,3.6,4.0,69,0.00,CLR,SKC,0.00,WeatherDisplay:10.37,2013-10-10 00:42:00,
2013-10-09 19:47:00,59.1,48.9,29.77,SSE,157,2.3,3.5,69,0.00,CLR,SKC,0.00,WeatherDisplay:10.37,2013-10-10 00:47:00,
2013-10-09 19:52:00,58.7,48.6,29.77,SSE,157,2.2,3.5,69,0.00,CLR,SKC,0.00,WeatherDisplay:10.37,2013-10-10 00:52:00,
2013-10-09 19:57:00,58.4,48.7,29.77,SSE,157,2.6,4.0,70,0.00,CLR,SKC,0.00,WeatherDisplay:10.37,2013-10-10 00:57:00,
2013-10-09 20:02:00,57.9,48.2,29.78,SSE,157,3.9,5.0,70,0.00,CLR,SKC,0.00,WeatherDisplay:10.37,2013-10-10 01:02:00,
2013-10-09 20:07:00,57.5,48.2,29.77,SSE,157,3.7,5.0,71,0.00,CLR,SKC,0.00,WeatherDisplay:10.37,2013-10-10 01:07:00,
2013-10-09 20:12:00,57.4,48.1,29.77,SSE,156,4.2,5.8,71,0.00,CLR,SKC,0.00,WeatherDisplay:10.37,2013-10-10 01:12:00,
2013-10-09 20:17:00,57.5,47.8,29.77,SSE,157,4.0,5.8,70,0.00,CLR,SKC,0.00,WeatherDisplay:10.37,2013-10-10 01:17:00,
2013-10-09 20:22:00,57.6,47.9,29.77,SSE,157,4.5,6.0,70,0.00,CLR,SKC,0.00,WeatherDisplay:10.37,2013-10-10 01:22:00,
2013-10-09 20:27:00,57.8,48.1,29.77,SSE,157,5.0,6.0,70,0.00,CLR,SKC,0.00,WeatherDisplay:10.37,2013-10-10 01:27:00,
2013-10-09 20:32:00,57.9,47.8,29.77,SSE,157,4.4,7.0,69,0.00,CLR,SKC,0.00,WeatherDisplay:10.37,2013-10-10 01:32:00,
2013-10-09 20:37:00,58.0,47.9,29.77,SSE,156,6.3,8.1,69,0.00,CLR,SKC,0.00,WeatherDisplay:10.37,2013-10-10 01:37:00,
2013-10-09 20:42:00,58.1,48.0,29.77,SSE,155,7.2,9.2,69,0.00,CLR,SKC,0.00,WeatherDisplay:10.37,2013-10-10 01:42:00,
2013-10-09 20:47:00,58.2,48.1,29.77,SSE,150,7.5,9.2,69,0.00,CLR,SKC,0.00,WeatherDisplay:10.37,2013-10-10 01:47:00,
2013-10-09 20:52:00,58.3,47.8,29.77,SSE,152,7.1,10.4,68,0.00,CLR,SKC,0.00,WeatherDisplay:10.37,2013-10-10 01:52:00,
2013-10-09 20:57:00,58.3,47.8,29.77,SSE,159,5.9,9.0,68,0.00,CLR,SKC,0.00,WeatherDisplay:10.37,2013-10-10 01:57:00,
2013-10-09 21:02:00,58.4,47.9,29.77,SSE,148,6.4,10.4,68,0.00,CLR,SKC,0.00,WeatherDisplay:10.37,2013-10-10 02:02:00,
2013-10-09 21:07:00,58.5,47.6,29.77,SSE,154,6.8,10.4,67,0.00,CLR,SKC,0.00,WeatherDisplay:10.37,2013-10-10 02:07:00,
2013-10-09 21:12:00,58.5,47.6,29.77,SSE,152,4.6,9.2,67,0.00,CLR,SKC,0.00,WeatherDisplay:10.37,2013-10-10 02:12:00,
2013-10-09 21:17:00,58.2,47.7,29.77,SSE,152,3.9,5.8,68,0.00,CLR,SKC,0.00,WeatherDisplay:10.37,2013-10-10 02:17:00,
2013-10-09 21:22:00,57.8,47.3,29.77,SSE,152,4.7,6.9,68,0.00,CLR,SKC,0.00,WeatherDisplay:10.37,2013-10-10 02:22:00,
2013-10-09 21:27:00,57.5,47.4,29.77,SSE,152,4.8,8.1,69,0.00,CLR,SKC,0.00,WeatherDisplay:10.37,2013-10-10 02:27:00,
2013-10-09 21:32:00,57.3,47.2,29.77,SSE,157,5.8,10.4,69,0.00,CLR,SKC,0.00,WeatherDisplay:10.37,2013-10-10 02:32:00,
2013-10-09 21:37:00,57.6,47.5,29.77,SSE,163,7.6,11.5,69,0.00,CLR,SKC,0.00,WeatherDisplay:10.37,2013-10-10 02:37:00,
2013-10-09 21:42:00,58.3,47.8,29.78,South,190,6.2,9.2,68,0.00,CLR,SKC,0.00,WeatherDisplay:10.37,2013-10-10 02:42:00,
2013-10-09 21:47:00,58.5,47.6,29.78,SSE,156,8.5,11.5,67,0.00,CLR,SKC,0.00,WeatherDisplay:10.37,2013-10-10 02:47:00,
2013-10-09 21:52:00,58.6,47.7,29.78,South,172,8.2,14.0,67,0.00,CLR,SKC,0.00,WeatherDisplay:10.37,2013-10-10 02:52:00,
2013-10-09 21:57:00,58.5,48.0,29.78,SSE,165,7.1,10.4,68,0.00,CLR,SKC,0.00,WeatherDisplay:10.37,2013-10-10 02:57:00,
2013-10-09 22:02:00,58.4,47.9,29.78,SSE,160,7.5,9.2,68,0.00,CLR,SKC,0.00,WeatherDisplay:10.37,2013-10-10 03:02:00,
2013-10-09 22:07:00,58.1,47.6,29.79,SSE,158,5.2,9.2,68,0.00,CLR,SKC,0.00,WeatherDisplay:10.37,2013-10-10 03:07:00,
2013-10-09 22:12:00,57.8,47.7,29.79,SSE,168,4.7,7.0,69,0.00,CLR,SKC,0.00,WeatherDisplay:10.37,2013-10-10 03:12:00,
2013-10-09 22:17:00,57.4,47.7,29.79,SSE,168,3.5,4.6,70,0.00,CLR,SKC,0.00,WeatherDisplay:10.37,2013-10-10 03:17:00,
2013-10-09 22:22:00,56.9,47.2,29.79,SSE,168,2.4,4.6,70,0.00,CLR,SKC,0.00,WeatherDisplay:10.37,2013-10-10 03:22:00,
2013-10-09 22:27:00,56.4,47.1,29.79,SSE,168,3.2,4.0,71,0.00,CLR,SKC,0.00,WeatherDisplay:10.37,2013-10-10 03:27:00,
2013-10-09 22:32:00,56.0,47.1,29.79,SSE,168,2.1,3.5,72,0.00,CLR,SKC,0.00,WeatherDisplay:10.37,2013-10-10 03:32:00,
2013-10-09 22:37:00,55.5,47.0,29.79,SSE,168,3.1,4.0,73,0.00,CLR,SKC,0.00,WeatherDisplay:10.37,2013-10-10 03:37:00,
2013-10-09 22:42:00,54.8,46.7,29.80,SSE,168,2.9,4.0,74,0.00,CLR,SKC,0.00,WeatherDisplay:10.37,2013-10-10 03:42:00,
2013-10-09 22:47:00,54.2,46.4,29.80,SSE,168,2.7,4.0,75,0.00,CLR,SKC,0.00,WeatherDisplay:10.37,2013-10-10 03:47:00,
2013-10-09 22:52:00,53.6,46.2,29.80,SSE,167,3.1,5.8,76,0.00,CLR,SKC,0.00,WeatherDisplay:10.37,2013-10-10 03:52:00,
2013-10-09 22:57:00,53.3,46.3,29.80,SSE,167,3.3,4.6,77,0.00,CLR,SKC,0.00,WeatherDisplay:10.37,2013-10-10 03:57:00,
2013-10-09 23:01:00,53.2,46.2,29.80,SSE,167,3.5,5.0,77,0.00,CLR,SKC,0.00,WeatherDisplay:10.37,2013-10-10 04:01:00,
2013-10-09 23:02:00,53.2,46.2,29.80,SSE,167,3.5,4.6,77,0.00,CLR,SKC,0.00,WeatherDisplay:10.37,2013-10-10 04:02:00,
2013-10-09 23:05:00,53.2,46.5,29.80,SSE,167,3.5,5.0,78,0.00,CLR,SKC,0.00,WeatherDisplay:10.37,2013-10-10 04:05:00,
2013-10-09 23:06:00,53.2,46.5,29.80,SSE,167,3.0,5.0,78,0.00,CLR,SKC,0.00,WeatherDisplay:10.37,2013-10-10 04:06:00,
2013-10-09 23:11:00,53.2,46.2,29.81,SSE,167,3.0,4.0,77,0.00,CLR,SKC,0.00,WeatherDisplay:10.37,2013-10-10 04:11:00,
2013-10-09 23:16:00,53.2,46.2,29.80,SSE,167,3.5,5.0,77,0.00,CLR,SKC,0.00,WeatherDisplay:10.37,2013-10-10 04:16:00,
2013-10-09 23:21:00,53.1,46.1,29.81,SSE,167,3.0,4.0,77,0.00,CLR,SKC,0.00,WeatherDisplay:10.37,2013-10-10 04:21:00,
2013-10-09 23:22:00,53.1,46.1,29.81,SSE,167,3.0,4.0,77,0.00,CLR,SKC,0.00,WeatherDisplay:10.37,2013-10-10 04:22:00,
2013-10-09 23:27:00,52.9,46.2,29.81,SSE,167,2.4,4.0,78,0.00,CLR,SKC,0.00,WeatherDisplay:10.37,2013-10-10 04:27:00,
2013-10-09 23:32:00,52.6,45.9,29.81,SSE,167,2.6,4.0,78,0.00,CLR,SKC,0.00,WeatherDisplay:10.37,2013-10-10 04:32:00,
2013-10-09 23:37:00,52.3,45.6,29.81,SSE,167,3.2,4.6,78,0.00,CLR,SKC,0.00,WeatherDisplay:10.37,2013-10-10 04:37:00,
2013-10-09 23:42:00,52.0,45.7,29.81,SSE,167,3.2,4.0,79,0.00,CLR,SKC,0.00,WeatherDisplay:10.37,2013-10-10 04:42:00,
2013-10-09 23:47:00,51.7,45.4,29.81,SSE,167,2.8,4.6,79,0.00,CLR,SKC,0.00,WeatherDisplay:10.37,2013-10-10 04:47:00,
2013-10-09 23:52:00,51.5,45.2,29.81,SSE,167,3.1,4.6,79,0.00,CLR,SKC,0.00,WeatherDisplay:10.37,2013-10-10 04:52:00,
2013-10-09 23:57:00,51.3,45.3,29.80,SSE,167,2.3,3.5,80,0.00,CLR,SKC,0.00,WeatherDisplay:10.37,2013-10-10 04:57:00,